KC7FQC Weather Reports


Display with metric or nautical units.
time (UTC)temp
F
wind
direction
speed
MPH
gust
MPH
rain 1hr
in
rain 24hr
in
rain mn
in
humidity
%
barometer
mb
20190524072845 63 246 1.0 5.0 0.00 0.02 0.00 44 1013.2
20190524065845 65 246 2.0 4.0 0.00 0.02 0.00 41 1013.5
20190524062845 66 246 1.0 5.0 0.00 0.02 0.02 39 1013.6
20190524055845 67 246 3.0 6.0 0.00 0.02 0.02 37 1014.0
20190524052845 67 244 1.0 3.0 0.00 0.02 0.02 36 1013.8
20190524045845 68 244 0.0 1.0 0.00 0.02 0.02 37 1013.9
20190524042845 70 244 0.0 4.0 0.00 0.02 0.02 34 1013.4
20190524035845 70 244 1.0 3.0 0.00 0.02 0.02 34 1013.3
20190524032845 71 244 0.0 2.0 0.00 0.02 0.02 32 1012.8
20190524025845 73 244 0.0 2.0 0.00 0.02 0.02 30 1012.7
20190524022845 74 244 1.0 6.0 0.00 0.02 0.02 29 1012.7
20190524015845 75 244 1.0 6.0 0.00 0.02 0.02 28 1012.5
20190524012845 76 244 5.0 6.0 0.00 0.02 0.02 27 1012.4
20190524005845 77 234 2.0 7.0 0.00 0.02 0.02 26 1012.5
20190524002845 78 219 2.0 8.0 0.00 0.02 0.02 26 1012.8
20190523235844 79 243 5.0 11.0 0.00 0.02 0.02 25 1013.2
20190523232845 80 238 8.0 8.0 0.00 0.02 0.02 24 1013.3
20190523225845 79 229 4.0 12.0 0.00 0.02 0.02 25 1013.4
20190523222845 78 252 1.0 22.0 0.00 0.02 0.02 26 1013.7
20190523215845 77 199 0.0 13.0 0.00 0.02 0.02 26 1014.0
20190523212844 78 239 7.0 14.0 0.00 0.02 0.02 26 1014.3
20190523205844 76 219 6.0 11.0 0.00 0.02 0.02 28 1014.3
20190523202844 76 184 7.0 15.0 0.00 0.02 0.02 29 1014.8
20190523195844 75 234 7.0 16.0 0.00 0.02 0.02 29 1014.7
20190523192844 73 221 7.0 14.0 0.00 0.02 0.02 31 1014.8
20190523185844 73 153 14.0 20.0 0.00 0.02 0.02 32 1015.0
20190523182900 72 232 6.0 21.0 0.00 0.02 0.02 32 1014.9
20190523175844 70 242 9.0 15.0 0.00 0.02 0.02 35 1014.7
20190523172844 70 252 7.0 14.0 0.00 0.02 0.02 38 1014.5
20190523165844 68 217 2.0 14.0 0.00 0.02 0.02 45 1014.2
20190523162844 66 188 6.0 13.0 0.00 0.02 0.02 50 1013.7
20190523155844 65 248 4.0 11.0 0.00 0.02 0.02 53 1013.2
20190523152844 62 173 6.0 9.0 0.00 0.02 0.02 56 1012.8
20190523145844 61 180 2.0 10.0 0.00 0.02 0.02 67 1012.5
20190523142859 59 109 4.0 8.0 0.00 0.02 0.02 71 1011.9
20190523135844 58 105 4.0 10.0 0.00 0.02 0.02 74 1011.3
20190523132844 56 297 2.0 6.0 0.00 0.02 0.02 79 1010.9
20190523125845 55 295 0.0 4.0 0.00 0.02 0.02 78 1010.3
20190523122844 55 295 4.0 6.0 0.00 0.02 0.02 77 1009.9
20190523115844 55 292 0.0 5.0 0.00 0.02 0.02 75 1009.5
20190523112844 56 291 1.0 2.0 0.00 0.02 0.02 73 1009.2
20190523105844 56 291 0.0 3.0 0.02 0.02 0.02 72 1008.7
20190523102844 56 291 0.0 6.0 0.02 0.02 0.02 75 1008.4
20190523095844 57 288 0.0 7.0 0.00 0.00 0.00 73 1008.7
20190523092844 58 278 2.0 20.0 0.00 0.00 0.00 69 1008.4
20190523085844 60 291 5.0 10.0 0.00 0.00 0.00 60 1007.9
20190523082843 61 282 0.0 13.0 0.00 0.00 0.00 56 1007.2
20190523075844 63 269 9.0 14.0 0.00 0.00 0.00 50 1006.6